COSMOS 1275 DEB

Satellite information

Favourite Embed

Satellite Type and Status

DEBRISIN ORBIT

Key statistics

Satellite COSMOS 1275 DEB at a glance.

Uptime

16045

Days in orbit

Revolutions

≈ 13.9

Per day

Orbit

LEO

Low Earth Orbit

Inclination

82.9

Latest

Satellite identification and parameters

Extended collection of information and parameters for COSMOS 1275 DEB.

Object identification

Identified? True

Debris? True

Object name: COSMOS 1275 DEB

International designator: 1981-053AJ

Object number (NORAD): 12690

Object ID (CCSDS): 12690

Country: COMMONWEALTH OF INDEPENDENT STATES (CIS)

Current information (Y/N): Y

RCS size: MEDIUM

Orbital parameters

Period: 103.957 minutes

Inclination: 82.9495 deg

SMA: 7323.68 km

Apoapsis: 1013.688 km

Periapsis: 877.402 km

RAAN: 279.9015 deg

Eccentricy: 0.0093045

Argument of periapsis: 183.2594 deg

Mean anomaly: 309.2917 deg

Mean motion: 13.85188033 rev/day

Mean motion (dot): 0.00002095 rev/day2

B* drag term: 0.0017733 1/REarth

Two-line elements (TLE)

Creation date: May 8, 2025, 3:01 a.m.

Reference frame: TEME

Reference center: EARTH

Epoch: May 7, 2025, 9:25 p.m. UTC

TLE line 0: 0 COSMOS 1275 DEB

TLE line 1: 1 12690U 81053AJ 25127.89267407 .00002095 00000-0 17733-2 0 9994

TLE line 2: 2 12690 82.9495 279.9015 0093045 183.2594 309.2917 13.85188033187998

Live tracking on map

Real-time ground track for satellite COSMOS 1275 DEB.

In-orbit conjunctions

A list of the most updated potential collisions computed for object COSMOS 1275 DEB.

Target Orbit TCA Probability of collision Miss distance Type
CZ-6A DEB SSO 2025-04-22 16:05:30 0.0001487281 18.0 (m) DEBRIS
GGSE 1 (GGRS) LEO 2024-07-01 22:00:29 0.001044401 399.0 (m) PAYLOAD

Associated space launch

Navigation satellite providing location information for the Tsiklon-B navigation system

COSMOS 1275 DEB was lifted into orbit during the mission ‘Kosmos-3M | Parus 27’, on board a Kosmos-3M space rocket.

The launch took place on June 4, 1981, 3:41 p.m. from 132/2.

For more information about the launch, click the button.

Launch to space Kosmos-3M | Parus 27
Kosmos-3M | Parus 27

Agency: N/A

Status: Launch Successful

Launch date: June 4, 1981, 3:41 p.m. UTC

Rocket: Kosmos-3M

Launch pad: 132/2

Location: Plesetsk Cosmodrome, Russian Federation

...

Latest news about this satellite

There are no fresh news available about this satellite. Check back as we update our databases every day.


Newsletter sign-up

Weekly statistics, charts and insights to help you stay on top of the space industry.